When you browse on this site, cookies collect data to enhance your experience and personalize the content and advertising you see.
Visit our Privacy Policy to learn more. By continuing to use the site, you agree to this use of cookies and data.

Hourly Weather Krutoe

Today, 14 July, Tuesday

Time Temperature Precipitation Wind Pressure Humidity
00:00 +10°C° 0 mm 2 mps 743 mmHg 95%
01:00 +10°C° 0 mm 2 mps 743 mmHg 95%
02:00 +9°C° 0 mm 2 mps 743 mmHg 97%
03:00 +10°C° 0 mm 2 mps 743 mmHg 96%
04:00 +10°C° 0 mm 2 mps 743 mmHg 95%
05:00 +10°C° 0 mm 3 mps 742 mmHg 94%
06:00 +11°C° 0 mm 3 mps 742 mmHg 88%
07:00 +13°C° 0 mm 3 mps 743 mmHg 81%
08:00 +16°C° 0 mm 3 mps 743 mmHg 75%
09:00 +17°C° 0 mm 3 mps 743 mmHg 68%
10:00 +19°C° 0 mm 4 mps 743 mmHg 60%
11:00 +20°C° 0 mm 4 mps 743 mmHg 53%
12:00 +20°C° 0 mm 4 mps 742 mmHg 52%
13:00 +21°C° 0 mm 4 mps 742 mmHg 51%
14:00 +21°C° 0 mm 5 mps 742 mmHg 51%
15:00 +21°C° 0 mm 4 mps 742 mmHg 53%
16:00 +20°C° 0 mm 4 mps 741 mmHg 56%
17:00 +20°C° 0 mm 4 mps 741 mmHg 59%
18:00 +19°C° 0 mm 4 mps 741 mmHg 61%
19:00 +18°C° 0 mm 4 mps 741 mmHg 64%
20:00 +15°C° 0 mm 4 mps 740 mmHg 66%
21:00 +15°C° 0 mm 4 mps 740 mmHg 65%
22:00 +15°C° 0 mm 4 mps 740 mmHg 64%
23:00 +14°C° 0 mm 4 mps 739 mmHg 63%

Tomorrow, 15 July, Wednesday

Time Temperature Precipitation Wind Pressure Humidity
00:00 +14°C° 0 mm 4 mps 739 mmHg 66%
01:00 +13°C° 0 mm 4 mps 739 mmHg 69%
02:00 +13°C° 0 mm 4 mps 739 mmHg 72%
03:00 +13°C° 0.1 mm 4 mps 739 mmHg 74%
04:00 +12°C° 0.1 mm 4 mps 739 mmHg 77%
05:00 +12°C° 0.1 mm 4 mps 738 mmHg 79%
06:00 +12°C° 0.1 mm 5 mps 738 mmHg 77%
07:00 +12°C° 0.1 mm 5 mps 738 mmHg 75%
08:00 +13°C° 0.1 mm 6 mps 738 mmHg 73%
09:00 +12°C° 0.6 mm 5 mps 738 mmHg 79%
10:00 +12°C° 0.6 mm 5 mps 738 mmHg 85%
11:00 +12°C° 0.6 mm 4 mps 738 mmHg 90%
12:00 +11°C° 1.1 mm 4 mps 738 mmHg 92%
13:00 +11°C° 1.1 mm 4 mps 739 mmHg 94%
14:00 +11°C° 1.1 mm 4 mps 739 mmHg 95%
15:00 +11°C° 0.4 mm 4 mps 739 mmHg 95%
16:00 +11°C° 0.4 mm 3 mps 739 mmHg 94%
17:00 +11°C° 0.4 mm 3 mps 740 mmHg 93%
18:00 +11°C° 0.1 mm 3 mps 740 mmHg 94%
19:00 +12°C° 0.1 mm 2 mps 740 mmHg 94%
20:00 +12°C° 0.1 mm 2 mps 740 mmHg 94%
21:00 +10°C° 0 mm 2 mps 740 mmHg 94%
22:00 +10°C° 0 mm 2 mps 740 mmHg 94%
23:00 +10°C° 0 mm 2 mps 740 mmHg 95%

Day after tomorrow, 16 July, Thursday

Time Temperature Precipitation Wind Pressure Humidity
00:00 +10°C° 0 mm 2 mps 740 mmHg 94%
01:00 +10°C° 0 mm 2 mps 740 mmHg 94%
02:00 +10°C° 0 mm 3 mps 740 mmHg 94%
03:00 +10°C° 0 mm 3 mps 740 mmHg 93%
04:00 +10°C° 0 mm 3 mps 740 mmHg 93%
05:00 +10°C° 0 mm 3 mps 740 mmHg 92%
06:00 +12°C° 0 mm 3 mps 740 mmHg 85%
07:00 +14°C° 0 mm 4 mps 740 mmHg 77%
08:00 +17°C° 0 mm 4 mps 740 mmHg 70%
09:00 +18°C° 0 mm 4 mps 740 mmHg 65%
10:00 +20°C° 0 mm 4 mps 740 mmHg 60%
11:00 +21°C° 0 mm 4 mps 740 mmHg 55%
12:00 +21°C° 0 mm 4 mps 740 mmHg 54%
13:00 +22°C° 0 mm 4 mps 740 mmHg 53%
14:00 +23°C° 0 mm 4 mps 741 mmHg 51%
15:00 +22°C° 0 mm 3 mps 740 mmHg 54%
16:00 +22°C° 0 mm 3 mps 740 mmHg 57%
17:00 +22°C° 0 mm 3 mps 740 mmHg 60%
18:00 +20°C° 0 mm 2 mps 740 mmHg 67%
19:00 +18°C° 0 mm 2 mps 740 mmHg 74%
20:00 +18°C° 0 mm 1 mps 740 mmHg 81%
21:00 +16°C° 0 mm 1 mps 741 mmHg 84%
22:00 +15°C° 0 mm 1 mps 741 mmHg 86%
23:00 +14°C° 0 mm 1 mps 741 mmHg 89%

17 July, Friday

Time Temperature Precipitation Wind Pressure Humidity
00:00 +13°C° 0 mm 1 mps 741 mmHg 90%
01:00 +13°C° 0 mm 1 mps 741 mmHg 92%
02:00 +12°C° 0 mm 1 mps 741 mmHg 93%
03:00 +13°C° 0 mm 1 mps 741 mmHg 93%
04:00 +13°C° 0 mm 1 mps 741 mmHg 93%
05:00 +13°C° 0 mm 1 mps 741 mmHg 93%
06:00 +15°C° 0 mm 1 mps 742 mmHg 84%
07:00 +18°C° 0 mm 1 mps 742 mmHg 75%
08:00 +20°C° 0 mm 1 mps 742 mmHg 66%
09:00 +20°C° 0 mm 2 mps 742 mmHg 61%
10:00 +21°C° 0 mm 2 mps 742 mmHg 55%
11:00 +23°C° 0 mm 2 mps 743 mmHg 50%
12:00 +23°C° 0 mm 2 mps 743 mmHg 48%
13:00 +24°C° 0 mm 2 mps 743 mmHg 46%
14:00 +25°C° 0 mm 2 mps 743 mmHg 45%
15:00 +24°C° 0 mm 2 mps 743 mmHg 47%
16:00 +24°C° 0 mm 2 mps 743 mmHg 50%
17:00 +24°C° 0 mm 2 mps 743 mmHg 53%
18:00 +21°C° 0 mm 2 mps 743 mmHg 59%
19:00 +18°C° 0 mm 2 mps 743 mmHg 66%
20:00 +16°C° 0 mm 1 mps 743 mmHg 73%
21:00 +15°C° 0 mm 1 mps 744 mmHg 72%
22:00 +14°C° 0 mm 1 mps 744 mmHg 72%
23:00 +13°C° 0 mm 1 mps 744 mmHg 71%

18 July, Saturday

Time Temperature Precipitation Wind Pressure Humidity
00:00 +12°C° 0 mm 0 mps 744 mmHg 71%
01:00 +12°C° 0 mm 0 mps 744 mmHg 71%
02:00 +11°C° 0 mm 0 mps 745 mmHg 71%
03:00 +11°C° 0 mm 0 mps 745 mmHg 73%
04:00 +13°C° 0 mm 1 mps 745 mmHg 74%
05:00 +13°C° 0 mm 1 mps 745 mmHg 75%
06:00 +15°C° 0 mm 1 mps 746 mmHg 70%
07:00 +18°C° 0 mm 1 mps 746 mmHg 65%
08:00 +20°C° 0 mm 1 mps 746 mmHg 60%
09:00 +22°C° 0 mm 1 mps 746 mmHg 56%
10:00 +23°C° 0 mm 1 mps 746 mmHg 51%
11:00 +25°C° 0 mm 1 mps 747 mmHg 46%
12:00 +25°C° 0 mm 1 mps 747 mmHg 44%
13:00 +26°C° 0 mm 1 mps 747 mmHg 41%
14:00 +26°C° 0 mm 1 mps 746 mmHg 39%
15:00 +26°C° 0 mm 1 mps 746 mmHg 42%
16:00 +26°C° 0 mm 1 mps 746 mmHg 45%
17:00 +25°C° 0 mm 1 mps 746 mmHg 49%
18:00 +23°C° 0 mm 1 mps 746 mmHg 57%
19:00 +21°C° 0 mm 1 mps 746 mmHg 65%
20:00 +19°C° 0 mm 1 mps 746 mmHg 73%
21:00 +18°C° 0 mm 1 mps 747 mmHg 75%
22:00 +16°C° 0 mm 1 mps 747 mmHg 78%
23:00 +14°C° 0 mm 0 mps 747 mmHg 81%

19 July, Sunday

Time Temperature Precipitation Wind Pressure Humidity
00:00 +14°C° 0 mm 1 mps 747 mmHg 82%
01:00 +14°C° 0 mm 1 mps 747 mmHg 83%
02:00 +13°C° 0 mm 1 mps 747 mmHg 85%
03:00 +14°C° 0 mm 1 mps 747 mmHg 84%
04:00 +13°C° 0 mm 0 mps 747 mmHg 84%
05:00 +13°C° 0 mm 0 mps 747 mmHg 84%
06:00 +15°C° 0 mm 0 mps 747 mmHg 77%
07:00 +19°C° 0 mm 1 mps 747 mmHg 70%
08:00 +22°C° 0 mm 1 mps 747 mmHg 63%
09:00 +23°C° 0 mm 1 mps 747 mmHg 57%
10:00 +24°C° 0 mm 1 mps 747 mmHg 51%
11:00 +26°C° 0 mm 1 mps 747 mmHg 45%
12:00 +26°C° 0 mm 1 mps 747 mmHg 43%
13:00 +26°C° 0 mm 1 mps 746 mmHg 40%
14:00 +27°C° 0 mm 1 mps 746 mmHg 38%
15:00 +26°C° 0 mm 1 mps 746 mmHg 43%
16:00 +26°C° 0 mm 1 mps 746 mmHg 48%
17:00 +26°C° 0 mm 1 mps 745 mmHg 53%
18:00 +23°C° 0 mm 1 mps 745 mmHg 59%
19:00 +21°C° 0 mm 1 mps 745 mmHg 65%
20:00 +19°C° 0 mm 1 mps 745 mmHg 71%
21:00 +18°C° 0 mm 1 mps 745 mmHg 73%
22:00 +16°C° 0 mm 1 mps 745 mmHg 74%
23:00 +15°C° 0 mm 1 mps 745 mmHg 76%
Show more